Location: Squamish
(49.7000°N, 123.1500°W)
Time: 10:15:06
(UTC-07:00)

Daily predictions for brighter satellites

Satellite Brightness Start Highest point End
(mag) Time Altitude Azimuth Time Altitude Azimuth Time Altitude Azimuth
Cosmos 1992 Rocket 4.1 21:43:52 10° NNW 21:49:08 80° WSW 21:54:20 10° SSE
Cosmos 1626 Rocket 3.9 21:44:49 10° SSW 21:49:14 74° W 21:53:40 10° N
Cosmos 2369 Rocket 2.3 21:43:35 10° NNW 21:49:19 87° ENE 21:54:58 10° SSE
GRACE-2 4.4 21:47:31 10° N 21:50:23 65° W 21:53:14 10° S
SL-8 R/B 3.7 21:46:48 10° W 21:51:39 77° S 21:56:29 10° E
USA 81 4.2 21:46:44 10° N 21:52:00 62° E 21:57:14 10° SSE
Lacrosse 4 Rocket 2.5 21:49:04 10° SSE 21:52:21 24° ESE 21:55:40 10° ENE
MetOp-B 4.2 21:49:08 10° SSE 21:54:29 81° ENE 21:59:53 10° NNW
UNK 4.4 21:50:22 10° NNE 21:55:42 54° ESE 22:01:16 10° S
USA 245 4.2 21:52:18 10° SSE 21:57:54 64° ENE 22:02:31 10° N
Cosmos 1634 Rocket 4.0 21:57:25 10° N 22:03:38 78° E 22:09:49 10° SSE
SeaSat 1 2.7 21:59:04 10° SSE 22:03:59 69° WSW 22:08:56 10° NW
SL-16 R/B 4.0 21:58:49 10° WSW 22:04:02 37° NW 22:09:18 10° NNE
YAOGAN 6 2.7 22:04:05 10° SSE 22:07:49 80° ENE 22:11:35 10° N
NOAA 11 4.4 22:02:39 10° SSE 22:07:59 60° ENE 22:13:19 10° N
SL-08 RB Rocket 4.1 22:03:48 10° SE 22:08:12 52° ENE 22:12:35 10° N
Cosmos 1953 Rocket 3.9 22:04:50 10° SSE 22:09:04 47° E 22:13:22 10° NNE
Cosmos-2242 4.0 22:07:17 10° N 22:11:20 34° ENE 22:15:08 11° SE
CZ-4B R/B 3.6 22:07:58 10° NNE 22:13:01 62° ESE 22:18:10 10° S
ISS -3.1 22:10:43 10° SW 22:13:53 49° SSE 22:17:04 10° ENE
Cosmos 1515 3.8 22:11:19 10° SSW 22:15:11 80° W 22:19:04 10° N
Cosmos 1190 Rocket 4.1 22:12:28 10° S 22:17:40 59° ESE 22:22:55 10° NNE
Cosmos 2263 4.3 22:14:47 10° NNW 22:20:24 76° WSW 22:25:53 11° SSE
CZ-4C R/B 3.6 22:17:02 11° SSE 22:20:55 57° ENE 22:24:48 10° N
H-2A R/B 2.6 22:16:38 11° SE 22:21:08 43° ENE 22:25:59 10° N
Cosmos 2279 Rocket 4.1 22:18:11 10° N 22:24:27 68° ENE 22:30:28 11° SSE
SAR-Lupe-2 4.4 22:23:19 13° SE 22:26:09 39° ENE 22:29:32 10° N
Atlas Centaur 2 4.3 22:23:02 10° SW 22:27:47 18° S 22:31:50 12° SSE
Cosmos 2346 Rocket 4.5 22:22:17 10° S 22:28:28 87° E 22:34:38 10° N
SPOT 1/Viking Rocket 3.8 22:25:01 10° S 22:30:09 71° WSW 22:35:19 10° NNW
COSMOS 2406 4.3 22:27:47 12° SSE 22:31:48 25° ESE 22:36:22 10° NE
Cosmos 1953 2.9 22:28:42 10° N 22:32:32 43° ENE 22:35:30 15° SE
CZ-4 R/B 4.0 22:28:48 10° NNE 22:33:47 67° ESE 22:38:47 10° S
Cosmos 1066 Rocket 4.4 22:28:53 10° SSW 22:34:38 87° W 22:40:32 10° NNE
Cosmos 676 Rocket 4.3 22:29:38 10° S 22:34:47 51° ESE 22:39:57 10° NNE
Lacrosse 5 rocket 3.3 22:32:04 10° WNW 22:35:41 31° N 22:39:29 10° NE
Meteor 1-22 Rocket 4.5 22:30:20 10° NNW 22:35:54 71° W 22:41:39 10° S
Landsat 7 3.9 22:32:56 13° SSE 22:37:07 73° ENE 22:41:53 10° N
Cosmos 1758 Rocket 3.5 22:38:26 10° S 22:42:49 84° E 22:47:12 10° NNE
ATLAS 3B R/B 2.9 22:36:42 10° SSW 22:44:21 72° SE 22:51:47 10° NE
CARTOSAT-1 3.7 22:42:24 16° SSE 22:45:46 64° ENE 22:50:03 10° N
Cosmos 1943 Rocket 2.2 22:40:28 10° NNW 22:46:03 84° WSW 22:50:34 16° SSE
Spot 4 4.2 22:43:13 16° SE 22:46:55 54° ENE 22:51:36 10° N
Cosmos 1346 Rocket 3.1 22:46:32 10° SSW 22:50:25 66° WNW 22:54:23 10° N
Terra 1.9 22:49:14 17° SSE 22:52:56 73° ENE 22:57:42 10° N
Cosmos 1943 3.5 22:48:38 10° SW 22:54:19 73° WNW 23:00:03 10° NNE
SL-27 R/B 2.8 22:53:31 20° SSE 22:55:27 41° ESE 22:58:39 10° NE
Cosmos 1656 Rocket 3.9 22:51:03 10° NNW 22:56:45 64° ENE 23:01:04 17° SE
COSMOS 2487 4.4 22:57:19 15° ESE 22:57:55 16° E 23:00:08 10° ENE
Cosmos 1842 3.2 22:55:37 15° S 22:58:48 74° E 23:02:44 10° NNE
USA 234 3.7 22:53:50 16° SSE 22:58:59 48° SW 23:05:20 10° WNW
Lacrosse 5 3.3 22:54:49 10° WNW 22:59:33 38° N 23:04:17 10° ENE
Cosmos 407 Rocket 3.7 22:58:07 10° SSW 23:03:23 76° WNW 23:08:37 10° NNE
COSMOS 2455 3.9 23:02:59 10° WSW 23:08:46 48° NW 23:14:36 10° NNE
Cosmos 1842 Rocket 3.6 23:04:50 10° N 23:09:13 67° ENE 23:11:57 22° SSE
Cosmos 1733 4.4 23:08:56 10° N 23:12:27 31° ENE 23:14:22 20° ESE
Cosmos 1818 4.5 23:07:35 10° NNW 23:12:51 44° NE 23:17:44 12° ESE
Aureole 2 4.0 23:16:14 10° NNW 23:19:19 77° ENE 23:20:26 34° SSE
Cosmos 1758 3.7 23:15:48 10° NNW 23:19:52 62° W 23:22:34 20° S
CZ-4B R/B 4.0 23:18:18 10° E 23:20:21 15° ENE 23:22:26 10° NNE
IGS 5A 3.7 23:18:28 21° S 23:21:09 66° W 23:25:19 10° NNW
ARGOS 4.5 23:18:52 10° SSW 23:23:45 34° W 23:28:41 10° NNW
Cosmos 1954 Rocket 4.1 23:18:37 10° SSW 23:23:56 85° WNW 23:29:16 10° NNE
Cosmos 2208 Rocket 4.1 23:20:41 10° NNW 23:25:50 69° WSW 23:29:08 22° S
Cosmos 2084 4.4 23:23:04 10° WNW 23:26:49 34° WSW 23:28:52 22° S
USA 238 DEB 3.8 23:20:05 10° SSW 23:27:02 60° SE 23:33:58 10° NE
USA 238 3.8 23:20:12 10° SSW 23:27:08 60° SE 23:34:03 10° NE
Lacrosse 4 Rocket 2.5 23:26:56 10° WSW 23:30:51 44° NW 23:34:50 10° NNE
Cosmos 2369 Rocket 4.3 23:29:03 10° WNW 23:32:33 17° W 23:36:03 10° SW
SL-8 R/B 4.1 23:29:23 10° W 23:33:58 44° SSW 23:36:12 26° SSE
H-2A R/B 4.2 23:32:33 10° NE 23:34:48 15° E 23:35:29 14° ESE
Cosmos 1092 Rocket 4.0 23:31:43 20° S 23:36:10 70° E 23:42:25 10° NNE
Meteor 2-5 Rocket 4.1 23:36:44 23° SSE 23:40:11 54° E 23:45:47 10° NNE
Cosmos 2369 4.4 23:39:10 10° NNW 23:44:38 47° NE 23:48:43 17° ESE
Nadezhda 4 Rocket 4.1 23:40:23 16° SSW 23:45:35 80° W 23:51:58 10° N
Cosmos 1340 2.8 23:44:17 34° SSE 23:45:41 56° E 23:49:25 10° NNE
Cosmos 1741 Rocket 4.0 23:41:50 19° SSW 23:45:42 77° ESE 23:51:03 10° NNE
Cosmos 1470 2.7 23:41:49 10° N 23:45:43 85° W 23:47:24 33° S
Geosat 4.1 23:40:57 10° NNE 23:46:00 76° WNW 23:51:01 10° SW
Cosmos 2221 2.8 23:41:58 10° N 23:46:14 56° ENE 23:48:11 29° SE
NOSS 3-3 (A) 4.4 23:41:47 10° NW 23:49:07 87° NE 23:54:55 20° SE
NOSS 3-3 (C) 4.4 23:41:53 10° NW 23:49:13 87° NE 23:55:03 20° SE
ISS -2.9 23:47:04 10° W 23:50:19 64° N 23:53:35 10° ENE
Cosmos 1544 3.7 23:49:40 10° NNW 23:53:21 52° W 23:55:00 29° SSW
